Terug naar catalogus

STARLINK-1039

ActiefCommunicatieVLEO
NORAD 44744·PAYLOAD·🇺🇸 United States

Gelanceerd Nov 11, 2019 vanaf Cape Canaveral Space Force Station

Loading…

Volgende Passages (komende 24 uur)

TLE

VersSource: CelesTrak SupGP

Epoch: Sep 15, 2026, 01:55 UTC

1 44744C 19074AH  26258.08034722 -.00002322  00000+0 -67205-4 0  2585
2 44744  53.0556  55.2140 0001772  72.4791 339.0206 15.35031647    12

Volg STARLINK-1039 in realtime met AllMySat

Download on the App Store